OBJECT A, 44310

Orbit data source: Space-Track

You're viewing an Uncataloged Satellite

Recently launched and/or uncataloged satellites may have evolving metadata. Metadata may include but not limited to: Owner, Maufacturer, Bus, Motor, and Mission.

OBJECT A, 44310 is a Chinese satellite in LEO that was launched on Wed, 05 Jun 2019 UTC via a CHANG ZHENG 11 launch vehicle from the Yellow Sea Launch Area, China (YSLA). Unknown objects in Earth's orbit typically refer to objects detected orbiting the Earth but have not yet been identified or cataloged. These objects could be anything from previously untracked satellites, spent rocket stages, debris from satellite collisions, or even natural meteoroids temporarily captured by Earth's gravity.

Loading next visibility...
Identifier
44310, 2019-032A
Orbit
LEO
Country
Flag of CNCN / PRC
Related business
None
Manufacturer
Unknown
Mission
Operational Commercial Technology
Bus & Motor
Unknown
Mass
Unknown
Launch date (UTC)
2019-06-05 (6 years ago)
Launch vehicle
CHANG ZHENG 11
Launch site
Yellow Sea Launch Area, China (YSLA)
Object type
Unknown
Shape & HBR
Box, Unknown HBR
Radar Cross Section
1.500 m², Medium (>0.1 m² and < 1m²)

Expand to show TLE details & history
Last TLE update: 17 hours ago

TLE from 17 hours ago
0 OBJECT A
1 44310U 19032A   25291.26233035  .00022169  00000-0  98132-3 0  9996
2 44310  44.9741 293.2423 0010447 327.9997  32.0248 15.21304663350255
Epoch: 2025-10-18T06:17Z
TLE epoch observation values (Epoch: 2025-10-18T06:17:45.342Z)
Latitude
-0°
Longitude
171.8075°
Altitude
495.809 km
Speed
7.622 km/s
True Right ascension
19h 32m 58s
True Declination
0° 00' 00"
Sunlit
Object was in daylight at epoch
Visualization orbit readout
Latitude
Unknown
Longitude
Unknown
Altitude
Unknown
Speed
Unknown
Apparent Right ascension
Unknown
Apparent Declination
Unknown
Sunlit
N/A
Visualization observer readout
Local Sidereal Time
18:34:07
Azimuth
Unknown
Elevation
Unknown
Doppler factor
Unknown
Orbital elements
Apogee altitude
510.703 km
Perigee altitude
496.324 km
Semi-major axis
6,881.65 km
Eccentricity
0.00104
Inclination
44.9741°
RAAN
293.2423°
Arg. of periapsis
327.9997°
True anomaly
32.08835°
Mean anomaly
32.0248°
Eccentric anomaly
32.05657°
Mean motion
3.80193 °/min
Orbital period
94.69 mins
BSTAR
0.00098132
Loading maneuver chart data...
Computing Atmospheric mass density...
Loading historical data...
Loading historical data...
Loading historical data...
Loading historical data...
Loading historical data...
Loading historical data...
Loading historical data...

Documentation

Showing up to 5 results
|